Location: Eschertshofen
(49.3064°N, 11.5756°E)
Time: 03:17:37
(UTC+00:00)

Cosmos 1269 Rocket - Pass Details

Date: 18 September 2020
Orbit: 772 x 780 km, 74.1° (Epoch: 18 October)

Event Time Altitude Azimuth Distance (km) Brightness Sun altitude
Rises 19:33:02 0° 338° (NNW) 3,274 8.1 -21.5°
Reaches altitude 10° 19:35:28 10° 342° (NNW) 2,343 7.2 -21.9°
Maximum altitude 19:40:44 61° 63° (ENE) 885 4.1 -22.6°
Enters shadow 19:41:31 55° 102° (ESE) 940 4.1 -22.7°
